Wind_Speed
13 13 13 12 12 11 10 9 8 7 6 5 5 6 7 8 10 11 12 12 12 13 14 14 15 15 15 14 13 13 13 13 13 14 14 14 14 15 16 17 16 16 16
13 13 12 12 12 11 10 10 9 7 6 4 4 4 5 7 9 10 11 12 12 13 14 15 15 15 15 15 14 14 13 14 14 14 14 15 15 14 15 16 17 17 17
14 13 12 13 13 12 11 11 9 7 5 4 3 3 4 5 7 9 10 11 12 13 14 14 15 15 15 15 15 14 14 14 14 14 14 14 14 13 14 16 18 18 18
14 13 13 13 13 13 12 11 10 8 6 4 3 2 2 3 6 8 9 11 11 12 13 15 15 15 14 15 15 14 14 14 14 13 14 14 14 14 15 16 17 18 17
14 14 14 14 14 14 13 12 11 9 7 6 5 3 1 1 4 6 8 9 10 11 13 14 14 15 15 15 14 14 14 15 15 14 15 15 15 14 15 16 16 17 17
14 15 15 15 15 14 14 13 12 11 10 8 6 4 3 3 3 4 6 8 9 10 12 13 14 14 15 15 15 14 15 16 16 16 16 16 15 15 15 15 16 17 17
15 16 16 16 16 15 14 14 13 12 11 10 8 7 5 5 4 3 4 6 8 10 11 12 14 14 15 16 16 15 15 16 17 17 17 17 16 16 16 16 16 17 16
16 16 17 16 16 16 15 15 14 13 13 11 10 9 7 7 6 5 4 5 7 8 10 11 12 14 15 16 17 17 16 17 18 18 18 18 17 16 16 16 16 16 16
15 16 16 17 16 16 16 16 15 14 13 12 12 11 9 8 7 6 5 4 5 6 7 9 11 12 13 15 17 17 16 17 18 18 18 18 18 17 17 17 17 16 16
15 16 16 16 17 16 17 16 16 15 14 14 13 13 11 10 8 6 5 4 3 3 5 7 9 11 12 14 16 17 17 17 17 19 19 19 19 18 18 18 18 17 16
14 15 16 16 17 16 17 16 16 15 14 14 13 13 12 11 10 8 6 5 3 1 2 5 7 9 11 14 15 16 17 17 17 18 19 21 21 20 19 18 19 19 18
13 14 15 16 16 16 16 16 15 15 14 13 13 13 12 11 10 9 8 6 4 2 0 2 5 8 10 13 14 15 16 17 18 19 19 20 22 22 21 20 21 21 20
13 14 14 15 15 16 16 15 15 15 14 13 13 12 12 12 11 10 9 7 6 4 2 2 3 6 8 11 13 15 16 17 18 19 20 20 22 23 22 22 22 22 22
12 13 13 14 14 15 15 15 15 15 14 13 13 12 12 12 11 11 10 9 8 6 5 3 3 4 7 10 12 14 16 17 18 19 20 21 22 24 24 24 24 24 24
11 12 13 13 14 14 14 14 14 14 13 13 12 11 11 11 11 11 10 9 9 8 6 5 4 5 6 8 11 13 15 17 18 18 20 22 23 24 25 26 25 25 26
10 11 12 12 13 13 13 13 13 13 12 12 12 11 11 11 10 10 10 10 9 8 6 6 5 5 5 6 10 13 15 17 18 19 21 22 24 25 26 27 28 28 27
9 9 10 11 12 12 12 12 12 12 12 11 11 11 11 11 11 11 11 11 11 10 8 7 7 7 7 8 10 13 15 18 19 20 22 23 25 26 27 27 28 29 29
8 9 9 10 11 12 12 12 12 12 12 11 11 11 11 11 11 12 12 12 12 11 10 9 9 9 10 10 11 13 15 18 20 21 22 24 26 27 29 29 29 30 31
8 9 9 10 10 11 11 11 12 12 12 12 12 12 12 12 12 13 14 14 13 13 12 11 11 12 12 13 14 15 16 18 20 22 23 25 26 27 28 30 31 31 32
8 9 10 10 11 11 12 12 12 12 12 13 13 13 14 14 14 15 16 16 15 15 15 14 15 15 16 17 17 18 19 20 21 22 23 25 26 28 29 31 32 32 33
10 10 11 11 12 12 13 13 14 14 14 14 15 15 16 16 17 17 18 18 18 18 18 18 18 19 20 20 20 21 21 22 23 24 25 26 28 29 30 31 33 34 34
12 12 12 13 14 14 15 15 16 16 16 17 17 18 19 20 20 20 21 21 21 21 22 22 22 23 23 24 24 24 25 26 26 27 27 28 29 31 32 33 34 35 35
13 14 14 15 16 16 17 17 18 18 19 20 21 21 22 23 24 24 24 24 25 26 26 26 27 27 27 28 28 28 29 29 30 30 31 31 32 33 34 35 36 37 38
15 16 16 17 18 19 19 20 20 21 22 22 23 24 25 26 27 27 27 28 29 30 30 30 30 30 31 31 32 32 32 33 33 33 35 35 36 36 37 38 39 40 40
17 18 19 20 21 21 22 22 23 24 25 25 26 27 28 29 30 30 31 32 33 33 33 34 33 33 34 35 35 35 35 36 36 37 38 39 39 40 40 41 42 43 43
20 21 21 22 23 23 24 25 26 27 27 28 29 30 31 32 33 33 35 36 36 37 37 37 37 38 38 39 39 40 39 40 40 40 42 43 44 44 44 44 45 46 47
Wind_Direction
2 1 358 356 353 351 349 344 340 330 318 300 282 263 249 237 231 226 222 219 220 218 215 215 214 212 210 208 205 203 202 201 194 189 189 192 191 190 186 186 183 178 176
5 4 2 1 1 359 357 352 345 339 331 318 295 269 251 238 230 223 218 218 218 217 215 213 212 212 210 207 205 204 204 203 197 193 191 190 189 189 186 188 185 181 179
8 7 6 6 6 6 4 359 355 352 348 341 321 278 250 235 224 217 215 215 216 215 214 212 210 210 209 206 205 204 204 200 197 193 190 187 185 183 184 187 187 185 179
16 15 13 12 11 10 10 11 12 11 11 9 2 342 268 226 212 210 212 212 212 213 213 211 210 210 208 207 204 203 201 199 192 188 184 181 180 178 178 182 184 184 181
23 22 21 21 20 19 21 24 26 29 30 31 29 33 39 179 191 199 206 208 208 209 210 211 211 209 209 205 205 203 200 199 192 187 184 183 180 177 176 181 183 184 182
28 27 27 28 28 27 29 33 36 38 40 42 44 54 72 111 147 177 194 202 204 205 208 209 211 212 208 206 207 204 201 199 196 192 189 189 185 181 180 183 184 187 186
33 32 32 33 32 32 34 38 41 43 44 47 51 58 73 97 113 139 171 189 195 198 203 207 210 212 213 210 210 209 205 201 200 197 193 193 191 190 189 189 190 191 193
36 34 35 35 36 37 39 41 43 45 48 50 53 62 75 86 93 101 129 165 182 191 198 205 209 213 217 214 213 214 212 208 204 203 201 200 199 198 198 197 196 197 199
38 36 37 38 40 42 43 44 46 48 50 54 58 62 71 80 85 88 98 124 160 184 199 207 210 215 218 217 216 217 219 214 211 211 210 206 205 205 204 203 204 206 206
39 37 38 40 43 44 44 45 48 50 52 56 59 61 65 70 73 76 80 92 122 171 202 211 215 218 220 218 219 219 220 220 217 216 217 215 213 212 212 212 211 211 213
39 38 39 42 42 43 43 44 47 49 52 55 57 59 62 63 62 62 63 67 76 119 191 213 221 225 226 222 224 222 223 224 222 220 220 219 219 218 219 218 218 218 218
39 39 40 41 40 41 42 43 45 47 50 52 54 57 57 57 57 55 55 51 45 39 19 223 229 231 231 228 229 227 227 228 229 228 225 224 223 222 222 224 224 223 224
40 40 38 39 39 41 42 43 43 46 48 49 51 52 51 51 51 49 47 44 37 23 358 290 254 240 234 233 233 232 232 234 235 234 230 230 228 226 225 227 228 228 228
40 38 37 36 38 39 40 40 41 44 44 45 45 45 46 46 45 43 40 39 34 24 4 332 294 263 246 240 237 236 238 239 240 239 237 235 233 232 231 231 232 234 231
38 37 36 35 36 35 36 37 38 38 39 39 39 37 35 36 36 35 34 31 26 21 7 348 322 297 263 250 244 243 242 241 244 245 244 241 238 238 236 235 236 238 236
31 30 29 30 30 30 31 31 30 30 31 32 32 31 29 27 25 24 22 18 14 9 359 345 330 316 290 266 255 251 248 245 246 247 248 245 243 242 240 237 238 240 240
22 21 20 21 22 22 22 22 21 20 19 19 19 18 17 15 11 8 5 2 358 354 346 331 319 310 299 286 273 263 256 251 250 250 250 248 247 246 245 242 242 243 243
8 8 8 8 10 11 11 11 11 11 10 7 4 3 1 358 356 354 351 348 344 341 336 328 315 306 299 291 285 273 264 259 255 253 253 251 250 250 250 247 247 247 247
355 356 355 355 355 356 357 357 357 358 359 357 355 353 349 345 341 340 339 338 334 331 326 319 311 305 299 293 289 282 273 266 261 258 256 254 253 252 252 252 252 252 250
339 342 344 343 344 344 344 344 344 344 344 344 344 343 340 338 335 331 328 326 324 321 317 311 306 303 299 294 289 285 279 273 269 265 262 259 257 256 254 254 254 254 253
325 329 331 332 332 331 331 332 332 334 334 335 334 333 332 330 328 325 323 320 318 314 311 307 303 300 297 293 291 286 282 276 273 270 266 264 261 259 258 256 255 256 255
315 318 319 321 321 321 322 322 322 323 323 323 323 323 322 322 321 319 317 315 313 311 308 304 300 298 296 293 290 286 281 277 274 272 270 268 266 264 261 260 258 257 257
307 310 312 313 313 313 314 315 315 316 316 316 316 316 316 316 316 314 312 310 309 308 306 303 299 297 294 291 288 285 281 277 274 273 271 270 269 267 264 262 261 260 259
301 305 307 309 310 310 310 310 310 311 312 313 313 312 312 312 312 311 309 308 307 307 304 302 298 296 294 291 288 286 282 278 274 273 272 270 269 268 267 265 264 263 262
298 300 303 305 307 308 308 308 308 309 309 310 310 310 310 310 309 308 307 306 305 305 303 301 297 295 293 291 289 286 283 279 275 273 274 272 270 269 268 267 265 264 263
296 298 300 302 304 304 305 306 306 306 307 307 307 307 308 308 307 306 306 306 305 303 302 300 297 295 293 291 289 286 284 281 277 274 273 273 271 269 268 267 267 266 265
Height
5870 5867 5864 5862 5859 5857 5854 5852 5850 5849 5848 5848 5847 5847 5848 5849 5849 5850 5852 5853 5855 5856 5858 5860 5861 5863 5864 5866 5867 5869 5870 5871 5871 5872 5872 5873 5875 5877 5880 5883 5886 5888 5891
5869 5866 5864 5861 5858 5856 5853 5851 5849 5847 5846 5846 5845 5845 5845 5846 5847 5848 5850 5851 5853 5855 5856 5858 5860 5861 5863 5865 5866 5868 5869 5870 5871 5871 5872 5873 5874 5876 5878 5881 5884 5888 5891
5869 5866 5863 5861 5858 5855 5852 5850 5848 5846 5845 5844 5844 5844 5844 5844 5844 5846 5847 5849 5851 5853 5854 5856 5858 5860 5862 5863 5865 5867 5868 5869 5869 5869 5870 5871 5873 5874 5876 5879 5883 5887 5891
5869 5866 5863 5860 5857 5855 5852 5850 5847 5846 5844 5843 5843 5842 5842 5842 5843 5844 5846 5847 5849 5851 5853 5855 5857 5859 5861 5862 5864 5866 5868 5869 5869 5870 5870 5872 5873 5875 5876 5879 5883 5888 5891
5869 5866 5863 5860 5857 5855 5852 5850 5848 5846 5844 5843 5842 5842 5841 5841 5842 5843 5844 5846 5848 5849 5851 5853 5855 5857 5859 5861 5863 5865 5867 5868 5870 5871 5872 5874 5875 5877 5879 5881 5885 5888 5892
5870 5867 5864 5861 5858 5855 5853 5851 5848 5846 5845 5844 5843 5842 5841 5841 5842 5843 5844 5845 5847 5848 5850 5852 5854 5857 5859 5861 5863 5865 5866 5868 5870 5872 5873 5875 5877 5879 5881 5884 5887 5889 5891
5871 5868 5865 5862 5859 5856 5854 5852 5850 5848 5846 5845 5844 5843 5842 5842 5842 5843 5844 5845 5846 5848 5849 5851 5854 5856 5858 5860 5862 5864 5866 5868 5870 5872 5874 5876 5878 5880 5882 5885 5887 5889 5892
5872 5869 5866 5863 5861 5858 5855 5853 5851 5849 5848 5846 5845 5844 5844 5844 5843 5844 5844 5845 5846 5847 5849 5851 5852 5855 5856 5859 5861 5863 5865 5867 5869 5871 5874 5876 5878 5880 5882 5885 5887 5889 5892
5874 5871 5868 5865 5863 5860 5857 5855 5853 5851 5849 5848 5847 5846 5846 5845 5845 5845 5845 5846 5847 5848 5849 5850 5852 5853 5855 5857 5859 5862 5864 5866 5868 5870 5873 5875 5877 5879 5882 5884 5886 5889 5891
5876 5873 5870 5867 5865 5862 5860 5857 5855 5853 5852 5850 5849 5848 5847 5847 5847 5847 5847 5847 5847 5848 5849 5850 5851 5853 5854 5856 5858 5860 5863 5865 5867 5869 5871 5873 5876 5878 5880 5883 5885 5887 5889
5877 5875 5872 5870 5867 5865 5862 5860 5857 5855 5854 5852 5851 5850 5849 5849 5848 5848 5848 5848 5848 5849 5849 5849 5851 5852 5853 5855 5856 5859 5861 5863 5865 5867 5869 5871 5874 5876 5878 5881 5883 5885 5887
5879 5877 5874 5872 5869 5867 5864 5862 5860 5858 5856 5855 5853 5853 5852 5851 5850 5850 5849 5849 5849 5849 5849 5849 5850 5851 5852 5853 5855 5857 5859 5861 5863 5865 5867 5869 5871 5873 5876 5878 5880 5883 5885
5881 5878 5876 5874 5871 5869 5867 5864 5862 5860 5859 5857 5856 5855 5854 5853 5852 5851 5851 5850 5849 5849 5849 5849 5850 5850 5851 5852 5853 5855 5857 5859 5861 5862 5864 5866 5868 5871 5873 5875 5877 5879 5881
5882 5880 5878 5875 5873 5871 5869 5867 5865 5863 5861 5859 5858 5857 5856 5855 5854 5853 5852 5851 5850 5850 5849 5849 5849 5849 5849 5850 5852 5853 5855 5857 5858 5860 5861 5863 5865 5867 5869 5871 5873 5875 5877
5884 5882 5879 5877 5875 5873 5871 5869 5867 5865 5863 5861 5860 5858 5857 5856 5855 5854 5852 5851 5851 5850 5849 5848 5848 5848 5848 5849 5850 5851 5852 5854 5855 5856 5858 5860 5861 5863 5865 5867 5869 5871 5873
5885 5883 5881 5879 5876 5874 5872 5870 5868 5866 5864 5863 5861 5859 5858 5857 5855 5854 5853 5851 5850 5850 5849 5848 5847 5846 5846 5847 5847 5848 5849 5850 5851 5853 5854 5855 5857 5859 5860 5862 5864 5866 5868
5885 5883 5882 5880 5878 5875 5873 5871 5869 5867 5865 5864 5862 5860 5859 5857 5855 5854 5853 5851 5850 5848 5847 5847 5846 5845 5845 5845 5845 5845 5845 5846 5847 5848 5849 5850 5852 5853 5855 5856 5858 5860 5862
5885 5883 5882 5880 5878 5876 5874 5872 5870 5868 5866 5864 5862 5860 5859 5857 5855 5853 5852 5850 5848 5847 5846 5845 5844 5843 5842 5842 5841 5841 5842 5842 5842 5843 5844 5845 5846 5847 5849 5850 5852 5853 5855
5884 5883 5881 5879 5878 5876 5874 5872 5869 5867 5865 5863 5862 5860 5858 5856 5854 5852 5850 5848 5846 5844 5843 5842 5841 5840 5839 5838 5838 5837 5837 5837 5837 5838 5838 5839 5840 5841 5842 5843 5845 5846 5848
5883 5881 5880 5878 5876 5875 5873 5871 5869 5866 5864 5862 5860 5858 5856 5854 5852 5850 5847 5845 5843 5841 5840 5838 5837 5836 5835 5834 5833 5832 5832 5831 5831 5832 5832 5832 5833 5834 5835 5836 5837 5838 5840
5881 5879 5878 5876 5874 5873 5871 5869 5867 5865 5862 5860 5858 5856 5853 5851 5849 5846 5844 5841 5839 5837 5835 5834 5832 5831 5829 5828 5826 5825 5825 5825 5825 5824 5825 5825 5825 5826 5826 5827 5828 5830 5831
5878 5877 5875 5874 5872 5870 5868 5866 5864 5862 5860 5857 5855 5853 5850 5847 5845 5842 5839 5836 5834 5831 5829 5827 5825 5823 5821 5820 5818 5817 5816 5816 5817 5816 5816 5816 5816 5817 5817 5818 5819 5820 5821
5875 5874 5872 5870 5869 5867 5865 5863 5861 5858 5856 5854 5851 5848 5845 5842 5839 5836 5833 5830 5827 5824 5822 5819 5816 5814 5812 5810 5809 5807 5806 5806 5806 5806 5806 5806 5806 5807 5807 5808 5809 5810 5810
5871 5870 5868 5866 5864 5863 5861 5858 5856 5854 5851 5848 5846 5843 5840 5836 5833 5830 5827 5823 5820 5816 5813 5810 5807 5804 5802 5800 5798 5796 5795 5794 5794 5794 5794 5795 5795 5795 5796 5796 5797 5798 5798
5867 5865 5864 5862 5860 5858 5855 5853 5851 5848 5845 5842 5839 5836 5833 5829 5826 5823 5819 5815 5812 5808 5804 5800 5797 5793 5791 5788 5786 5784 5783 5782 5782 5782 5781 5781 5782 5782 5783 5784 5784 5785 5785
5862 5860 5858 5856 5854 5852 5850 5847 5845 5842 5839 5836 5833 5829 5825 5822 5818 5814 5810 5806 5802 5798 5794 5790 5786 5782 5779 5776 5773 5771 5769 5768 5768 5768 5768 5767 5767 5767 5769 5770 5770 5770 5771